Lewiston, WA

2:19 PM PDT on May 24, 2017 (GMT -0700)
Lewiston-Nez Perce County

Weather History for KLWS - November, 2013

Change the Weather History Date:

Monday, November 18, 2013

  Actual Average Record
Temperature  
Mean Temperature 44 °F 40 °F  
Max Temperature 50 °F 47 °F 64 °F (1895)
Min Temperature 38 °F 34 °F 18 °F (1881)
Degree Days  
Heating Degree Days 21 25  
Month to date heating degree days 398 393  
Since 1 July heating degree days 966 918  
Cooling Degree Days 0 0  
Month to date cooling degree days 0 0  
Year to date cooling degree days 1178 807  
Moisture  
Dew Point 32 °F    
Average Humidity 58    
Maximum Humidity 70    
Minimum Humidity 45    
Precipitation  
Precipitation T in 0.04 in 1.22 in (1996)
Month to date precipitation 0.68 0.73  
Year to date precipitation 8.73 10.89  
Snow  
Snow 0.00 in 0.10 in 2.00 in (1921)
Month to date snowfall T 0.8  
Since 1 July snowfall T 0.8  
Since 1 September snowfall T 0.8  
Snow Depth 0.00 in    
Sea Level Pressure  
Sea Level Pressure 29.90 in    
Wind  
Wind Speed 5 mph (ESE)    
Max Wind Speed 18 mph    
Max Gust Speed 22 mph    
Visibility 10 miles    
Events Rain    
T = Trace of Precipitation, MM = Missing Value Source: NWS Daily Summary

Daily Weather History Graph

Daily Weather History Graph

Search for Another Location

Airport or City:

Trip Planner

Search our weather history database for the weather conditions in past years. The results will help you decide how hot, cold, wet, or windy it might be!

Date:

Astronomy

Nov. 18, 2013 Rise Set
Actual Time 6:54 AM PST 4:11 PM PST
Civil Twilight 6:21 AM PST 4:44 PM PST
Nautical Twilight 5:44 AM PST 5:21 PM PST
Astronomical Twilight 5:08 AM PST 5:57 PM PST
Moon 5:16 PM PST (11/18) 7:47 AM PST (11/18)
Length of Visible Light 10h 23m
Length of Day
9h 17m
Full, 99% of the Moon is Illuminated
Nov 18
Full
Nov 25
Last Quarter
Dec 2
New
Dec 9
First Quarter
Dec 17
Full

Hourly Weather History & Observations

Time (PST) Temp. Windchill Dew Point Humidity Pressure Visibility Wind Dir Wind Speed Gust Speed Precip Events Conditions
12:56 AM 45.0 °F 39.3 °F 28.0 °F 52% 29.97 in 10.0 mi South 11.5 mph - N/A   Clear
1:56 AM 45.0 °F 43.5 °F 28.0 °F 52% 29.97 in 10.0 mi South 3.5 mph - N/A   Clear
2:56 AM 46.0 °F 44.8 °F 27.0 °F 47% 29.97 in 10.0 mi SSW 3.5 mph - N/A   Clear
3:56 AM 43.0 °F - 28.0 °F 56% 29.97 in 10.0 mi Calm Calm - N/A   Clear
4:56 AM 41.0 °F 39.0 °F 28.9 °F 62% 29.98 in 10.0 mi South 3.5 mph - N/A   Clear
5:56 AM 43.0 °F - 28.0 °F 56% 29.98 in 10.0 mi Calm Calm - N/A   Clear
6:56 AM 39.9 °F 36.7 °F 28.9 °F 65% 29.99 in 10.0 mi SE 4.6 mph - N/A   Partly Cloudy
7:56 AM 39.9 °F 34.5 °F 30.0 °F 68% 29.99 in 10.0 mi ENE 8.1 mph - N/A   Scattered Clouds
8:56 AM 43.0 °F 40.3 °F 30.9 °F 62% 29.98 in 10.0 mi ENE 4.6 mph - N/A   Mostly Cloudy
9:56 AM 44.1 °F 40.8 °F 32.0 °F 63% 29.98 in 10.0 mi ENE 5.8 mph - N/A   Overcast
10:56 AM 46.0 °F 44.8 °F 33.1 °F 61% 29.96 in 10.0 mi ENE 3.5 mph - N/A   Partly Cloudy
11:56 AM 46.9 °F - 32.0 °F 56% 29.94 in 10.0 mi North 4.6 mph - N/A   Clear
12:56 PM 48.0 °F - 33.1 °F 56% 29.91 in 10.0 mi NE 4.6 mph - N/A   Partly Cloudy
1:56 PM 48.0 °F - 34.0 °F 58% 29.88 in 10.0 mi ENE 5.8 mph - N/A   Clear
2:56 PM 48.0 °F - 35.1 °F 61% 29.87 in 10.0 mi Calm Calm - N/A   Clear
3:56 PM 48.9 °F - 30.9 °F 50% 29.85 in 10.0 mi ESE 6.9 mph - N/A   Clear
4:56 PM 46.9 °F - 32.0 °F 56% 29.85 in 10.0 mi SSW 3.5 mph - N/A   Clear
5:56 PM 44.1 °F - 34.0 °F 68% 29.83 in 10.0 mi Calm Calm - N/A   Clear
6:56 PM 44.1 °F 41.5 °F 33.1 °F 65% 29.83 in 10.0 mi NE 4.6 mph - N/A   Clear
7:56 PM 44.1 °F - 34.0 °F 68% 29.82 in 10.0 mi Calm Calm - N/A   Overcast
8:56 PM 44.1 °F - 34.0 °F 68% 29.81 in 10.0 mi Calm Calm - N/A   Overcast
9:56 PM 45.0 °F 41.8 °F 34.0 °F 65% 29.80 in 10.0 mi East 5.8 mph - 0.00 in Rain Light Rain
10:56 PM 46.0 °F 43.1 °F 34.0 °F 63% 29.77 in 10.0 mi SE 5.8 mph - 0.00 in Rain Light Rain
11:56 PM 48.9 °F - 36.0 °F 61% 29.75 in 10.0 mi South 18.4 mph - 0.00 in Rain Light Rain